sat.trackr.live / text

‹ back to catalog

YAMAL 401

NORAD 40345 · 2014-082A

PAYLOAD ACTIVE UNKNOWN

§ Identity

Operator
Country
CIS
Launch date
2014-12-15
Launch site
TYMSC
Launch vehicle
Mass (kg)
RCS (m²)
59.76

Purposes: comms

External: N2YO · Heavens-Above · Gunter

§ Orbital elements

Epoch: 2026-09-19T20:39:24.020352Z

Period
1,436.06 min
Inclination
0.0160°
Eccentricity
0.0000688
Mean motion
1.00274321 rev/d
Perigee alt
35,783.0 km
Apogee alt
35,788.8 km
Semi-major
42,164.0 km
B*
0.0000e+0
RAAN
205.4078°
Arg perigee
336.8177°
Mean anomaly
216.3523°
Rev number
4,286

§ Raw data

YAMAL 4011 40345U 14082A   26262.86069468 -.00000233  00000+0  00000+0 0  99932 40345   0.0160 205.4078 0000688 336.8177 216.3523  1.00274321 42860

JSON: /api/v1/satellites/40345 · /tle

For live sub-satellite position, see the globe view (requires WebGL).

§ Visibility from observer

Set your observer location to see the next 7 days of passes ≥ 10°. The values pass through the URL so the page stays shareable.

No JS? Fill the form by hand. The geolocation button needs JavaScript.